Regional Weather Roundup
Issued by NWS Jackson, KY

Home | Current Version | Previous Version | Graphics & Text | Print | Product List | Glossary On
Versions: 1 2 3 4 5 6 7 8 9 10 11 12 13 14 15 16 17 18 19 20 21 22 23 24 25 26 27 28
000
ASUS43 KJKL 240810
RWRJKL

EAST KENTUCKY HOURLY WEATHER ROUNDUP
NATIONAL WEATHER SERVICE JACKSON KY
400 AM EDT WED MAY 24 2017

NOTE: "FAIR" INDICATES FEW OR NO CLOUDS BELOW 12,000 FEET WITH
NO SIGNIFICANT WEATHER AND/OR OBSTRUCTIONS TO VISIBILITY.

* THESE REPORTS ARE NOT UNDER NWS QUALITY CONTROL AND MAY NOT
  REPORT WEATHER SUCH AS PRECIPITATION AND FOG.

KYZ079-080-083-085-087-088-110-112-115-119-120-240900
...EASTERN KENTUCKY...

CITY           SKY/WX    TMP DP  RH WIND       PRES   REMARKS
JACKSON        CLOUDY    59  58  96 CALM      29.60F
LONDON         FOG       56  55  97 CALM      29.61F VSB 1/2
SOMERSET*      CLOUDY    55  55 100 CALM      29.61F FOG
MONTICELLO*    CLOUDY    59  58  96 W9        29.61F
WILLIAMSBURG*  CLOUDY    57  57 100 S3        29.61F VSB<1/4
MIDDLESBORO*   FOG       59  59 100 CALM      29.63S VSB 1/2
HARLAN APT*    CLOUDY    59  57  94 CALM      29.63S
PIKE CO APT*   FOG       59  59 100 CALM      29.61S VSB 1/2
BIG SANDY APT* CLOUDY    60  60 100 CALM      29.60F
MOREHEAD APT*  FOG       59  57  94 CALM      29.61S VSB 3/4
ASHLAND*       CLOUDY    61  59  94 CALM      29.57F
$$

KYZ035-036-041-042-044-050-067-078-099-240900
...CENTRAL KENTUCKY...

CITY           SKY/WX    TMP DP  RH WIND       PRES   REMARKS
MT STERLING*   FOG       59  59 100 CALM      29.61F VSB<1/4
FLEMING/MASON* FOG       57  57 100 CALM      29.60F VSB<1/4
DANVILLE*      CLOUDY    59  57  94 SW5       29.61R
LEXINGTON      CLOUDY    59  56  89 S3        29.59F
FRANKFORT      PTCLDY    59  56  89 SE5       29.56F
LOUISVILLE     CLOUDY    65  55  70 SE3       29.54F
LEBANON*         N/A     61  59  94 S8        29.58F
GLASGOW*       CLOUDY    60  60 100 CALM      29.57F
BOWLING GREEN  CLOUDY    63  60  90 SE6       29.57F
$$

KYZ091>093-OHZ055-061-077-WVZ005-015-034-035-042-240900
...SOUTHERN OHIO/WEST VIRGINIA...

CITY           SKY/WX    TMP DP  RH WIND       PRES   REMARKS
COVINGTON      MOCLDY    61  58  90 S5        29.57F
COLUMBUS       MOCLDY    61  59  93 E6        29.59F
DAYTON         CLOUDY    60  57  89 SE9       29.59F
WILMINGTON     CLOUDY    59  59 100 CALM      29.60S
HUNTINGTON     CLOUDY    61  58  90 CALM      29.59S
CHARLESTON     CLOUDY    59  57  93 NE3       29.59F
PINEVILLE*     LGT RAIN  58  57  96 MISG      29.68S
BECKLEY        CLOUDY    55  52  89 SE12      29.66F
BLUEFIELD      CLOUDY    53  52  96 VRB7      29.68F
LOGAN CO APT*  CLOUDY    59  57  94 CALM      29.60F
$$

VAZ002-007-008-TNZ017-027-036-066-071-240900
...SOUTHWEST VIRGINIA/EAST TENNESSEE...

CITY           SKY/WX    TMP DP  RH WIND       PRES   REMARKS
WISE*          MOCLDY    59  59 100 S5        29.66S
JONESVILLE*    CLOUDY    61  61 100 CALM      29.64F
ABINGDON*      CLOUDY    61  61 100 E3        29.66R
BRISTOL        MOCLDY    61  61 100 S3        29.63S FOG
MORRISTOWN*    PTSUNNY   61  61 100 CALM      29.61F
SEVIERVILLE*   MOSUNNY   57  57 100 CALM      29.61F
KNOXVILLE      LGT RAIN  62  59  90 W7        29.61F
LAFOLLETTE*    CLOUDY    61  61 100 CALM      29.64F FOG
OAK RIDGE      CLOUDY    62  60  93 VRB3      29.62F
CROSSVILLE     MOCLDY    59  58  96 CALM      29.63F
NASHVILLE      CLOUDY    66  60  81 CALM      29.58F
$$

...KEY TO REMARKS...
VSB - VISIBILITY IN MILES
WCI - WIND CHILL INDEX
HX  - HEAT INDEX

$$




USA.gov is the U.S. government's official web portal to all federal, state and local government web resources and services.